Le nostre stazioni meteo in Italia

Pubblicità
Il mio iltempo24.it
Lampedusa, Italia (16490): Temperatura & dewpoint: 05.12.2018 02:00:00 - 11.12.2018 02:00:00 (CET)Lampedusa, Italia (16490): velocità del vento: 05.12.2018 02:00:00 - 11.12.2018 02:00:00 (CET)Lampedusa, Italia (16490): direzione del vento: 05.12.2018 02:00:00 - 11.12.2018 02:00:00 (CET)Lampedusa, Italia (16490): visibility: 05.12.2018 02:00:00 - 11.12.2018 02:00:00 (CET)
Data & Tempo tt [°C] td [°C] ff [km/h] ff [kn] dd vv [km]
11.12.2018 02:00:00 - - - - - -
11.12.2018 01:00:00 - - - - - -
11.12.2018 00:00:00 - - - - - -
10.12.2018 23:00:00 - - - - - -
10.12.2018 22:00:00 16,0 8,0 34 18 NO 10
10.12.2018 21:00:00 16,0 9,0 28 15 ONO 10
10.12.2018 20:00:00 16,0 9,0 35 19 NO 10
10.12.2018 19:00:00 17,0 9,0 42 23 ONO 10
10.12.2018 18:00:00 17,0 8,0 39 21 NO 10
10.12.2018 17:00:00 17,0 9,0 28 15 ONO 10
10.12.2018 16:00:00 17,0 9,0 29 16 NO 10
10.12.2018 15:00:00 18,0 10,0 26 14 ONO 10
10.12.2018 14:00:00 17,0 9,0 35 19 NO 10
10.12.2018 13:00:00 18,0 11,0 26 14 NO 10
10.12.2018 12:00:00 18,0 9,0 41 22 NO 10
10.12.2018 11:00:00 17,0 10,0 26 14 NO 10
10.12.2018 10:00:00 17,0 9,0 35 19 NNO 10
10.12.2018 09:00:00 17,0 10,0 37 20 NO 10
10.12.2018 08:00:00 17,0 10,0 41 22 NO 10
10.12.2018 07:00:00 17,0 11,0 31 17 ONO 10
10.12.2018 06:00:00 16,0 12,0 34 18 O 10
10.12.2018 05:00:00 - - - - - -
10.12.2018 04:00:00 - - - - - -
10.12.2018 03:00:00 - - - - - -
10.12.2018 02:00:00 - - - - - -
10.12.2018 01:00:00 - - - - - -
10.12.2018 00:00:00 - - - - - -
09.12.2018 23:00:00 - - - - - -
09.12.2018 22:00:00 17,0 11,0 15 8 O 10
09.12.2018 21:00:00 17,0 11,0 22 12 ONO 10
09.12.2018 20:00:00 18,0 11,0 28 15 O 10
09.12.2018 19:00:00 17,0 11,0 26 14 O 10
09.12.2018 18:00:00 17,0 12,0 29 16 ONO 10
09.12.2018 17:00:00 17,0 12,0 26 14 ONO 10
09.12.2018 16:00:00 17,0 12,0 24 13 ONO 10
09.12.2018 15:00:00 18,0 12,0 29 16 ONO 10
09.12.2018 14:00:00 18,0 12,0 34 18 ONO 10
09.12.2018 13:00:00 18,0 12,0 34 18 ONO 10
09.12.2018 12:00:00 17,0 12,0 29 16 ONO 10
09.12.2018 11:00:00 17,0 12,0 26 14 NO 10
09.12.2018 10:00:00 17,0 10,0 34 18 NO 10
09.12.2018 09:00:00 16,0 10,0 35 19 NO 10
09.12.2018 08:00:00 16,0 11,0 29 16 NNO 10
09.12.2018 07:00:00 16,0 11,0 39 21 NNO 10
09.12.2018 06:00:00 16,0 10,0 41 22 NNO 10
09.12.2018 05:00:00 - - - - - -
09.12.2018 04:00:00 - - - - - -
09.12.2018 03:00:00 - - - - - -
09.12.2018 02:00:00 - - - - - -
09.12.2018 01:00:00 - - - - - -
09.12.2018 00:00:00 - - - - - -
08.12.2018 23:00:00 - - - - - -
08.12.2018 22:00:00 16,0 11,0 34 18 ONO 10
08.12.2018 21:00:00 16,0 11,0 26 14 ONO 10
08.12.2018 20:00:00 17,0 11,0 26 14 ONO 10
08.12.2018 19:00:00 17,0 11,0 21 11 ONO 10
08.12.2018 18:00:00 17,0 13,0 21 11 ONO 10
08.12.2018 17:00:00 17,0 12,0 18 10 ONO 10
08.12.2018 16:00:00 17,0 13,0 22 12 ONO 10
08.12.2018 15:00:00 18,0 12,0 28 15 ONO 10
08.12.2018 14:00:00 18,0 13,0 22 12 ONO 10
08.12.2018 13:00:00 18,0 13,0 22 12 NO 10
08.12.2018 12:00:00 18,0 13,0 22 12 NO 10
08.12.2018 11:00:00 18,0 13,0 15 8 NO 10
08.12.2018 10:00:00 18,0 13,0 15 8 NNO 10
08.12.2018 09:00:00 17,0 12,0 24 13 N 10
08.12.2018 08:00:00 17,0 13,0 18 10 N 10
08.12.2018 07:00:00 17,0 13,0 16 9 NNO 10
08.12.2018 06:00:00 16,0 13,0 9 5 N 10
08.12.2018 05:00:00 - - - - - -
08.12.2018 04:00:00 - - - - - -
08.12.2018 03:00:00 - - - - - -
08.12.2018 02:00:00 - - - - - -
08.12.2018 01:00:00 - - - - - -
08.12.2018 00:00:00 - - - - - -
07.12.2018 23:00:00 - - - - - -
07.12.2018 22:00:00 18,0 14,0 26 14 ENE 10
07.12.2018 21:00:00 18,0 14,0 11 6 E 10
07.12.2018 20:00:00 17,0 13,0 15 8 NNE 10
07.12.2018 19:00:00 17,0 13,0 21 11 NNE 10
07.12.2018 18:00:00 17,0 13,0 18 10 NNE 10
07.12.2018 17:00:00 17,0 14,0 21 11 NNE 10
07.12.2018 16:00:00 17,0 14,0 18 10 ENE 10
07.12.2018 15:00:00 18,0 14,0 21 11 N 10
07.12.2018 14:00:00 18,0 13,0 22 12 NNE 10
07.12.2018 13:00:00 18,0 13,0 18 10 NNE 10
07.12.2018 12:00:00 18,0 12,0 22 12 NNE 10
07.12.2018 11:00:00 17,0 13,0 22 12 N 10
07.12.2018 10:00:00 17,0 13,0 24 13 N 10
07.12.2018 09:00:00 17,0 13,0 26 14 N 10
07.12.2018 08:00:00 16,0 13,0 26 14 NNO 10
07.12.2018 07:00:00 16,0 13,0 28 15 NNO 10
07.12.2018 06:00:00 17,0 12,0 28 15 NNO 10
07.12.2018 05:00:00 - - - - - -
07.12.2018 04:00:00 - - - - - -
07.12.2018 03:00:00 - - - - - -
07.12.2018 02:00:00 - - - - - -
07.12.2018 01:00:00 - - - - - -
07.12.2018 00:00:00 - - - - - -
06.12.2018 23:00:00 - - - - - -
06.12.2018 22:00:00 16,0 14,0 8 4 SO 10
06.12.2018 21:00:00 16,0 13,0 11 6 O 10
06.12.2018 20:00:00 17,0 14,0 13 7 OSO 10
06.12.2018 19:00:00 17,0 13,0 13 7 OSO 10
06.12.2018 18:00:00 17,0 14,0 13 7 OSO 10
06.12.2018 17:00:00 17,0 13,0 15 8 OSO 10
06.12.2018 16:00:00 18,0 14,0 31 17 OSO 10
06.12.2018 15:00:00 18,0 13,0 21 11 O 10
06.12.2018 14:00:00 18,0 13,0 18 10 O 10
06.12.2018 13:00:00 18,0 12,0 22 12 O 10
06.12.2018 12:00:00 18,0 12,0 18 10 O 10
06.12.2018 11:00:00 18,0 12,0 21 11 O 10
06.12.2018 10:00:00 17,0 12,0 15 8 O 10
06.12.2018 09:00:00 16,0 12,0 9 5 O 10
06.12.2018 08:00:00 15,0 11,0 9 5 ONO 10
06.12.2018 07:00:00 15,0 12,0 8 4 ONO 10
06.12.2018 06:00:00 16,0 12,0 5 3 NO 10
06.12.2018 05:00:00 - - - - - -
06.12.2018 04:00:00 - - - - - -
06.12.2018 03:00:00 - - - - - -
06.12.2018 02:00:00 - - - - - -
06.12.2018 01:00:00 - - - - - -
06.12.2018 00:00:00 - - - - - -
05.12.2018 23:00:00 - - - - - -
05.12.2018 22:00:00 17,0 14,0 21 11 N 10
05.12.2018 21:00:00 17,0 14,0 26 14 N 10
05.12.2018 20:00:00 17,0 14,0 26 14 N 10
05.12.2018 19:00:00 17,0 14,0 24 13 NNO 10
05.12.2018 18:00:00 17,0 14,0 22 12 NNO 10
05.12.2018 17:00:00 18,0 14,0 24 13 N 10
05.12.2018 16:00:00 18,0 14,0 24 13 NNO 10
05.12.2018 15:00:00 18,0 14,0 28 15 NNO 10
05.12.2018 14:00:00 18,0 14,0 24 13 NNO 10
05.12.2018 13:00:00 19,0 14,0 24 13 NNO 10
05.12.2018 12:00:00 19,0 13,0 26 14 NO 10
05.12.2018 11:00:00 18,0 13,0 26 14 NNO 10
05.12.2018 10:00:00 18,0 14,0 26 14 NNO 10
05.12.2018 09:00:00 18,0 14,0 26 14 NNO 10
05.12.2018 08:00:00 17,0 13,0 26 14 NNO 10
05.12.2018 07:00:00 17,0 13,0 26 14 NNO 10
05.12.2018 06:00:00 17,0 13,0 26 14 NNO 10
05.12.2018 05:00:00 - - - - - -
05.12.2018 04:00:00 - - - - - -
05.12.2018 03:00:00 - - - - - -
05.12.2018 02:00:00 - - - - - -

tt = Temperatura
td = dewpoint
ff = velocità del vento
dd = direzione del vento
vv = visibility

Stazioni seguenti

WeatherPro
AMSI
MeteoEarth